Beach, ND

7:28 AM MDT on July 24, 2016 (GMT -0600)
Beach

Weather History for K20U - March, 2013

Change the Weather History Date:

Tuesday, March 12, 2013

  Actual Average (KGDV) Record (KGDV)
Temperature  
Mean Temperature 19 °F -  
Max Temperature 28 °F 34 °F 75 °F (2007)
Min Temperature 10 °F 15 °F -5 °F (2009)
Degree Days  
Heating Degree Days 46    
Moisture  
Dew Point 13 °F    
Average Humidity 74    
Maximum Humidity 93    
Minimum Humidity 51    
Precipitation  
Precipitation 1.69 in - - ()
Sea Level Pressure  
Sea Level Pressure 30.22 in    
Wind  
Wind Speed 15 mph (NW)    
Max Wind Speed 25 mph    
Max Gust Speed 33 mph    
Visibility 9 miles    
Events Snow    
Averages and records for this station are not official NWS values.
T = Trace of Precipitation, MM = Missing Value Source: NWS Daily Summary

Daily Weather History Graph

Daily Weather History Graph

Search for Another Location

Airport or City:

Trip Planner

Search our weather history database for the weather conditions in past years. The results will help you decide how hot, cold, wet, or windy it might be!

Date:

Astronomy

Mar. 12, 2013 Rise Set
Actual Time 7:14 AM MDT 6:57 PM MDT
Civil Twilight 6:43 AM MDT 7:28 PM MDT
Nautical Twilight 6:08 AM MDT 8:03 PM MDT
Astronomical Twilight 5:32 AM MDT 8:39 PM MDT
Moon 7:16 AM MDT (3/12) 8:23 PM MDT (3/12)
Length of Visible Light 12h 44m
Length of Day
11h 43m
New Moon, 1% of the Moon is Illuminated
Mar 12
New Moon
Mar 19
First Quarter
Mar 27
Full
Apr 2
Last Quarter
Apr 10
New

Hourly Weather History & Observations

Time (MDT) Temp. Windchill Dew Point Humidity Pressure Visibility Wind Dir Wind Speed Gust Speed Precip Events Conditions
12:15 AM 17.6 °F 0.9 °F 14.0 °F 86% 30.16 in 5.0 mi NW 20.7 mph 28.8 mph 0.03 in Snow Light Snow
12:35 AM 17.6 °F 1.7 °F 14.0 °F 86% 30.17 in 3.0 mi NW 18.4 mph 28.8 mph 0.15 in Snow Light Snow
12:55 AM 17.6 °F -0.6 °F 14.0 °F 86% 30.17 in 2.0 mi NW 25.3 mph 29.9 mph 0.58 in Snow Light Snow
1:15 AM 17.6 °F 2.2 °F 14.0 °F 86% 30.19 in 3.0 mi NW 17.3 mph 28.8 mph 0.20 in Snow Light Snow
1:35 AM 17.6 °F 0.5 °F 14.0 °F 86% 30.20 in 2.0 mi NW 21.9 mph 28.8 mph 0.65 in Snow Light Snow
1:55 AM 15.8 °F -1.5 °F 14.0 °F 93% 30.20 in 2.0 mi NW 20.7 mph 26.5 mph 0.93 in Snow Light Snow
2:15 AM 15.8 °F -2.3 °F 12.2 °F 86% 30.20 in 3.0 mi NW 23.0 mph - 0.10 in Snow Light Snow
2:35 AM 15.8 °F -2.3 °F 12.2 °F 86% 30.21 in 7.0 mi NW 23.0 mph 28.8 mph 0.16 in Snow Light Snow
2:55 AM 15.8 °F -1.9 °F 10.4 °F 79% 30.21 in 10.0 mi NW 21.9 mph 29.9 mph 0.18 in Snow Light Snow
3:15 AM 15.8 °F -1.5 °F 10.4 °F 79% 30.21 in 10.0 mi NW 20.7 mph 33.4 mph N/A Snow Light Snow
3:35 AM 14.0 °F -3.0 °F 10.4 °F 86% 30.21 in 10.0 mi NW 18.4 mph 26.5 mph N/A   Mostly Cloudy
3:55 AM 14.0 °F -3.0 °F 10.4 °F 86% 30.22 in 10.0 mi NW 18.4 mph 25.3 mph N/A   Scattered Clouds
4:15 AM 14.0 °F -2.5 °F 10.4 °F 86% 30.22 in 10.0 mi NW 17.3 mph - N/A   Clear
4:35 AM 14.0 °F -2.0 °F 10.4 °F 86% 30.22 in 10.0 mi NW 16.1 mph - N/A   Scattered Clouds
4:55 AM 14.0 °F -3.0 °F 8.6 °F 79% 30.23 in 10.0 mi WNW 18.4 mph 23.0 mph N/A   Partly Cloudy
5:15 AM 12.2 °F -3.7 °F 8.6 °F 85% 30.24 in 10.0 mi NW 15.0 mph - N/A   Clear
5:35 AM 12.2 °F -4.3 °F 8.6 °F 85% 30.23 in 10.0 mi NW 16.1 mph - N/A   Clear
5:55 AM 12.2 °F -5.8 °F 8.6 °F 85% 30.24 in 10.0 mi WNW 19.6 mph - N/A   Clear
6:15 AM 12.2 °F -4.8 °F 8.6 °F 85% 30.24 in 10.0 mi WNW 17.3 mph 23.0 mph N/A   Clear
6:35 AM 12.2 °F -3.7 °F 8.6 °F 85% 30.24 in 10.0 mi NW 15.0 mph - N/A   Clear
6:55 AM 10.4 °F -4.8 °F 8.6 °F 92% 30.25 in 10.0 mi NW 12.7 mph 20.7 mph N/A   Clear
7:15 AM 10.4 °F -4.8 °F 8.6 °F 92% 30.26 in 10.0 mi NW 12.7 mph - N/A   Clear
7:35 AM 12.2 °F -4.8 °F 8.6 °F 85% 30.26 in 10.0 mi WNW 17.3 mph 20.7 mph N/A   Partly Cloudy
7:55 AM 14.0 °F -0.8 °F 8.6 °F 79% 30.26 in 10.0 mi WNW 13.8 mph - N/A   Partly Cloudy
8:15 AM 14.0 °F -0.2 °F 10.4 °F 86% 30.27 in 10.0 mi WNW 12.7 mph 19.6 mph N/A   Partly Cloudy
8:35 AM 14.0 °F -0.8 °F 10.4 °F 86% 30.27 in 10.0 mi WNW 13.8 mph - N/A   Clear
8:55 AM 15.8 °F 0.9 °F 10.4 °F 79% 30.27 in 10.0 mi WNW 15.0 mph - N/A   Clear
9:15 AM 17.6 °F 4.3 °F 12.2 °F 79% 30.28 in 10.0 mi WNW 12.7 mph - N/A   Clear
9:35 AM 17.6 °F 2.2 °F 10.4 °F 73% 30.28 in 10.0 mi WNW 17.3 mph - N/A   Clear
9:55 AM 17.6 °F 2.7 °F 12.2 °F 79% 30.29 in 10.0 mi WNW 16.1 mph - N/A   Clear
10:15 AM 19.4 °F 4.5 °F 14.0 °F 80% 30.28 in 10.0 mi NW 17.3 mph - N/A   Clear
10:55 AM 21.2 °F 7.8 °F 14.0 °F 74% 30.29 in 10.0 mi NNW 15.0 mph - N/A   Clear
11:15 AM 23.0 °F 10.6 °F 14.0 °F 68% 30.29 in 10.0 mi NNW 13.8 mph 21.9 mph N/A   Scattered Clouds
11:35 AM 23.0 °F 10.1 °F 14.0 °F 68% 30.29 in 10.0 mi NNW 15.0 mph - N/A   Mostly Cloudy
11:55 AM 23.0 °F 10.6 °F 14.0 °F 68% 30.29 in 10.0 mi NW 13.8 mph - N/A   Mostly Cloudy
12:15 PM 24.8 °F 14.0 °F 14.0 °F 64% 30.28 in 10.0 mi NW 11.5 mph 19.6 mph N/A   Partly Cloudy
12:35 PM 24.8 °F 14.0 °F 14.0 °F 64% 30.29 in 10.0 mi NNW 11.5 mph 16.1 mph N/A   Clear
12:55 PM 24.8 °F 15.3 °F 14.0 °F 64% 30.28 in 10.0 mi NNW 9.2 mph - N/A   Partly Cloudy
1:15 PM 24.8 °F 15.3 °F 14.0 °F 64% 30.28 in 10.0 mi North 9.2 mph - N/A   Partly Cloudy
1:35 PM 26.6 °F 16.8 °F 14.0 °F 59% 30.27 in 10.0 mi NNW 10.4 mph - N/A   Clear
1:55 PM 26.6 °F 17.5 °F 14.0 °F 59% 30.26 in 10.0 mi NW 9.2 mph - N/A   Clear
2:15 PM 26.6 °F 18.2 °F 14.0 °F 59% 30.25 in 10.0 mi NNW 8.1 mph - N/A   Clear
2:35 PM 26.6 °F 21.2 °F 14.0 °F 59% 30.25 in 10.0 mi NW 4.6 mph - N/A   Clear
2:55 PM 28.4 °F 22.2 °F 14.0 °F 55% 30.24 in 10.0 mi NNW 5.8 mph - N/A   Clear
3:15 PM 28.4 °F 24.6 °F 14.0 °F 55% 30.24 in 10.0 mi WNW 3.5 mph - N/A   Clear
3:35 PM 28.4 °F 23.3 °F 14.0 °F 55% 30.24 in 10.0 mi NNW 4.6 mph - N/A   Clear
3:55 PM 28.4 °F - 14.0 °F 55% 30.23 in 10.0 mi Calm Calm - N/A   Clear
4:15 PM 28.4 °F - 14.0 °F 55% 30.23 in 10.0 mi Calm Calm - N/A   Clear
4:35 PM 28.4 °F 24.6 °F 14.0 °F 55% 30.22 in 10.0 mi NNW 3.5 mph - N/A   Clear
4:55 PM 28.4 °F 24.6 °F 14.0 °F 55% 30.21 in 10.0 mi NE 3.5 mph - N/A   Clear
5:15 PM 28.4 °F 24.6 °F 12.2 °F 51% 30.21 in 10.0 mi East 3.5 mph - N/A   Clear
5:35 PM 28.4 °F 24.6 °F 14.0 °F 55% 30.21 in 10.0 mi ESE 3.5 mph - N/A   Partly Cloudy
5:55 PM 26.6 °F - 14.0 °F 59% 30.20 in 10.0 mi Calm Calm - N/A   Clear
6:15 PM 26.6 °F 22.6 °F 15.8 °F 64% 30.19 in 10.0 mi SE 3.5 mph - N/A   Clear
6:35 PM 24.8 °F 19.1 °F 17.6 °F 74% 30.20 in 10.0 mi SE 4.6 mph - N/A   Clear
6:55 PM 24.8 °F 19.1 °F 17.6 °F 74% 30.19 in 10.0 mi ESE 4.6 mph - N/A   Partly Cloudy
7:15 PM 23.0 °F 14.7 °F 17.6 °F 80% 30.19 in 10.0 mi ESE 6.9 mph - N/A   Partly Cloudy
7:35 PM 23.0 °F 13.9 °F 15.8 °F 74% 30.19 in 10.0 mi ESE 8.1 mph - N/A   Clear
7:55 PM 23.0 °F 15.8 °F 17.6 °F 80% 30.19 in 10.0 mi ESE 5.8 mph - N/A   Clear
8:15 PM 23.0 °F 13.9 °F 15.8 °F 74% 30.18 in 10.0 mi ESE 8.1 mph - N/A   Clear
8:35 PM 23.0 °F 14.7 °F 17.6 °F 80% 30.18 in 10.0 mi SE 6.9 mph - N/A   Clear
8:55 PM 23.0 °F 14.7 °F 17.6 °F 80% 30.17 in 10.0 mi SE 6.9 mph - N/A   Partly Cloudy
9:15 PM 23.0 °F 14.7 °F 15.8 °F 74% 30.17 in 10.0 mi SE 6.9 mph - N/A   Partly Cloudy
9:35 PM 23.0 °F 14.7 °F 17.6 °F 80% 30.16 in 10.0 mi SE 6.9 mph - N/A   Mostly Cloudy
9:55 PM 24.8 °F 16.1 °F 15.8 °F 69% 30.16 in 10.0 mi SE 8.1 mph - N/A   Overcast
10:15 PM 24.8 °F 14.0 °F 17.6 °F 74% 30.15 in 10.0 mi SE 11.5 mph - N/A   Overcast
10:35 PM 24.8 °F 14.0 °F 17.6 °F 74% 30.14 in 10.0 mi SE 11.5 mph - N/A   Overcast
10:55 PM 24.8 °F 14.6 °F 17.6 °F 74% 30.14 in 10.0 mi SE 10.4 mph - N/A   Overcast
11:15 PM 24.8 °F 16.1 °F 17.6 °F 74% 30.14 in 10.0 mi SSE 8.1 mph - N/A   Overcast
11:55 PM 24.8 °F 14.0 °F 17.6 °F 74% 30.13 in 10.0 mi SSE 11.5 mph - N/A   Overcast